Weather History for Houston Intercontinental, TX

Change the Weather History Date:

Saturday, December 8, 2012

  Actual Average Record
Temperature  
Mean Temperature 72 °F -  
Max Temperature 82 °F 62 °F 82 °F (2012)
Min Temperature 62 °F 43 °F 28 °F (2011)
Cooling Degree Days 7    
Growing Degree Days 22 (Base 50)    
Moisture  
Dew Point 65 °F    
Average Humidity 82    
Maximum Humidity 100    
Minimum Humidity 46    
Precipitation  
Precipitation 0.00 in - - ()
Sea Level Pressure  
Sea Level Pressure 29.87 in    
Wind  
Wind Speed 4 mph (South)    
Max Wind Speed 12 mph    
Max Gust Speed -    
Visibility 10 miles    
Events Fog    
Averages and records for this station are not official NWS values.
T = Trace of Precipitation, MM = Missing Value Source: NWS Daily Summary

Daily Weather History Graph

Daily Weather History Graph

Search for Another Location

Airport:

Trip Planner

Search our weather history database for the weather conditions in past years. The results will help you decide how hot, cold, wet, or windy it might be!

Date:

Astronomy

Dec. 08, 2012 Rise Set
Actual Time 7:05 AM CST 5:21 PM CST
Civil Twilight 6:39 AM CST 5:47 PM CST
Nautical Twilight 6:09 AM CST 6:17 PM CST
Astronomical Twilight 5:40 AM CST 6:46 PM CST
Moon 1:49 AM CST (12/8) 1:36 PM CST (12/8)
Length of Visible Light 11h 08m
Length of Day
10h 16m
Waning Crescent, 28% of the Moon is Illuminated
Dec 8
Waning Crescent
Dec 13
New
Dec 19
First Quarter
Dec 28
Full
Jan 4
Last Quarter

Hourly Weather History & Observations

Time (CST) Temp. Heat Index Dew Point Humidity Pressure Visibility Wind Dir Wind Speed Gust Speed Precip Events Conditions
12:53 AM 66.0 °F - 64.9 °F 96% 29.86 in 10.0 mi South 3.5 mph - N/A   Mostly Cloudy
1:14 AM 64.4 °F - 64.4 °F 100% 29.86 in 10.0 mi South 3.5 mph - N/A   Mostly Cloudy
1:53 AM 64.0 °F - 64.0 °F 100% 29.86 in 10.0 mi Calm Calm - N/A   Mostly Cloudy
2:53 AM 64.0 °F - 63.0 °F 96% 29.86 in 9.0 mi Calm Calm - N/A   Mostly Cloudy
3:48 AM 64.4 °F - 64.4 °F 100% 29.85 in 10.0 mi Calm Calm - N/A   Scattered Clouds
3:53 AM 64.0 °F - 64.0 °F 100% 29.86 in 10.0 mi SSE 3.5 mph - N/A   Scattered Clouds
4:53 AM 66.2 °F - 66.2 °F 100% 29.86 in 8.0 mi Calm Calm - N/A   Scattered Clouds
5:53 AM 64.0 °F - 64.0 °F 100% 29.88 in 10.0 mi Calm Calm - N/A   Scattered Clouds
6:53 AM 64.9 °F - 64.0 °F 97% 29.89 in 9.0 mi Calm Calm - N/A   Mostly Cloudy
7:53 AM 64.0 °F - 64.0 °F 100% 29.91 in 6.0 mi Calm Calm - N/A Fog Patches of Fog
8:23 AM 64.4 °F - 64.4 °F 100% 29.91 in 6.0 mi SE 3.5 mph - N/A   Mostly Cloudy
8:53 AM 66.9 °F - 66.9 °F 100% 29.92 in 6.0 mi SSE 4.6 mph - N/A   Mostly Cloudy
9:53 AM 73.9 °F - 69.1 °F 85% 29.93 in 10.0 mi SE 3.5 mph - N/A   Mostly Cloudy
10:26 AM 75.2 °F - 68.0 °F 78% 29.92 in 10.0 mi SSW 6.9 mph - N/A   Mostly Cloudy
10:53 AM 77.0 °F - 66.9 °F 71% 29.91 in 10.0 mi SSW 8.1 mph - N/A   Mostly Cloudy
10:59 AM 77.0 °F - 66.2 °F 69% 29.91 in 10.0 mi SSW 9.2 mph - N/A   Mostly Cloudy
11:53 AM 80.1 °F 81.9 °F 64.9 °F 60% 29.89 in 10.0 mi South 6.9 mph - N/A   Mostly Cloudy
12:53 PM 79.0 °F - 63.0 °F 58% 29.86 in 10.0 mi SSW 8.1 mph - N/A   Mostly Cloudy
1:53 PM 81.0 °F 81.9 °F 62.1 °F 52% 29.83 in 10.0 mi South 11.5 mph - N/A   Mostly Cloudy
2:53 PM 82.9 °F 83.2 °F 60.1 °F 46% 29.82 in 10.0 mi SSW 8.1 mph - N/A   Scattered Clouds
3:53 PM 80.1 °F 81.1 °F 61.0 °F 52% 29.82 in 10.0 mi South 10.4 mph - N/A   Mostly Cloudy
4:53 PM 79.0 °F - 61.0 °F 54% 29.83 in 10.0 mi South 10.4 mph - N/A   Mostly Cloudy
5:53 PM 75.9 °F - 64.0 °F 67% 29.83 in 10.0 mi South 11.5 mph - N/A   Scattered Clouds
6:53 PM 73.9 °F - 66.0 °F 76% 29.86 in 10.0 mi South 9.2 mph - N/A   Scattered Clouds
7:53 PM 73.0 °F - 66.9 °F 81% 29.87 in 10.0 mi South 5.8 mph - N/A   Scattered Clouds
8:53 PM 72.0 °F - 66.9 °F 84% 29.88 in 10.0 mi South 5.8 mph - N/A   Partly Cloudy
9:53 PM 71.1 °F - 66.9 °F 87% 29.88 in 10.0 mi South 6.9 mph - N/A   Partly Cloudy
10:53 PM 70.0 °F - 66.9 °F 90% 29.88 in 10.0 mi South 6.9 mph - N/A   Partly Cloudy
11:53 PM 70.0 °F - 68.0 °F 93% 29.88 in 10.0 mi South 3.5 mph - N/A   Partly Cloudy